Regional Weather Roundup
Issued by NWS Cleveland, OH

Home | Current Version | Previous Version | Graphics & Text | Print | Product List | Glossary On
Versions: 1 2 3 4 5 6 7 8 9 10 11 12 13 14 15 16 17 18 19 20 21 22 23 24 25 26 27 28 29 30 31 32 33 34 35 36 37 38 39 40 41 42 43 44 45 46 47 48 49 50
000
ASUS41 KCLE 200910
RWRCLE
OHIO REGIONAL WEATHER ROUNDUP
NATIONAL WEATHER SERVICE CLEVELAND, OH
400 AM EST SAT JAN 20 2018

NOTE: "FAIR" INDICATES FEW OR NO CLOUDS BELOW 12,000 FEET WITH NO
SIGNIFICANT WEATHER AND/OR OBSTRUCTIONS TO VISIBILITY.

OHZ001>008-015>018-024>027-034-035-043-044-201000-
   NORTHWEST OHIO

CITY           SKY/WX    TMP DP  RH WIND       PRES   REMARKS
DEFIANCE       FAIR      32  22  66 SW12G24   29.88S WCI  23
FINDLAY        FAIR      35  23  61 SW15      29.90R WCI  25
TOLEDO EXPRESS FAIR      34  25  69 SW18G26   29.85R WCI  23
TOLEDO EXEC    FAIR      33  24  69 SW17G23   29.87R WCI  22
LIMA           FAIR      34  24  67 SW18      29.92S WCI  23
$$

OHZ009>014-019>023-028>033-038-089-201000-
   NORTHEAST OHIO

CITY           SKY/WX    TMP DP  RH WIND       PRES   REMARKS
CLE-HOPKINS    MOCLDY    39  24  55 SW21G30   29.91R
CLE-LAKEFRONT  FAIR      39  24  55 S21G29    29.87S
CUY CO. ARPT   NOT AVBL
LORAIN-ELYRIA  FAIR      33  20  58 SW20      29.89R WCI  21
ASHTABULA      FAIR      34  22  61 SW14      29.87S WCI  25
AKRON-CANTON   FAIR      32  21  64 SW14      29.93R WCI  22
WOOSTER        FAIR      32  21  64 SW14      29.94R WCI  22
MANSFIELD      FAIR      33  23  66 SW16      29.92R WCI  23
YOUNGSTOWN     MOCLDY    34  21  59 SW13G20   29.90S WCI  25
$$

OHZ042-051>053-060>062-070>072-077>081-201000-
  SOUTHWEST OHIO

CITY           SKY/WX    TMP DP  RH WIND       PRES   REMARKS
CINC-COVINGTON MOCLDY    35  25  66 SW10      30.02R WCI  27
CINC-LUNKEN    FAIR      31  22  69 VRB3      30.06S
HAMILTON       FAIR      36  24  62 SW5       30.05R
DAYTON         MOCLDY    31  23  72 SW12      30.00R WCI  22
WRIGHT-PAT AFB FAIR      34  17  48 SW13      30.00R WCI  25
DAYTON GENERAL FAIR      35  23  61 SW15      30.00R WCI  25
WILMINGTON     FAIR      33  24  69 SW21      30.00R WCI  21
$$

OHZ036-037-039>041-045>050-054>059-063>069-073>076-082>088-201000-
  CENTRAL AND SOUTHEAST OHIO

CITY           SKY/WX    TMP DP  RH WIND       PRES   REMARKS
COLUMBUS       FAIR      31  21  66 S3        30.01R
OSU AIRPORT    FAIR      30  22  72 S8        30.00R WCI  22
BOLTON FIELD   FAIR      31  22  69 SW9       30.01R WCI  23
RICKENBACK AFB FAIR      31  23  70 SW10      30.01R WCI  23
NEWARK         FAIR      37  23  56 SW12G20   29.99R
MARION         FAIR      32  22  66 SW12      29.95R WCI  23
LANCASTER      FAIR      37  25  61 SW8       30.02R
ZANESVILLE     FAIR      32  19  58 S7        30.01S WCI  26
NEW PHILLY     NOT AVBL
$$



USA.gov is the U.S. government's official web portal to all federal, state and local government web resources and services.